Zurück zum Katalog

STARLINK-36206

AktivKommunikationVLEO
NORAD 66930·PAYLOAD·🇺🇸 United States

Gestartet Dec 7, 2025 von Vandenberg Space Force Base

Loading…

Nächste Überflüge (nächste 24 Stunden)

TLE

AktuellSource: CelesTrak SupGP

Epoche: Sep 14, 2026, 23:24 UTC

1 66930C 25286F   26257.97548611 -.00038559  00000+0 -11387-2 0  2570
2 66930  53.1591 195.7791 0001442  91.2254 355.4918 15.34423729    19

Verfolge STARLINK-36206 in Echtzeit mit AllMySat

Download on the App Store